Starlink 1279

operational
NORAD ID: 45360 Int'l Des: 2020-019 Owner: SPXS Country: US Constellation: starlink
LEOCIRCULARSTARLINK_TYPE

Starlink 1279について

説明を読み込み中...

リアルタイム位置

3D地球を読み込み中...

次回通過

高度履歴

Altitude vs Time

uPlot chart will show altitude changes over time

軌道要素

1 45360U 20019A 25352.27962122 .00115854 00000-0 26349-2 0 9998
2 45360 53.0481 128.8615 0005316 189.6179 170.4725 15.42110500318050
Epoch: Dec 18, 2025 • Age: 12 hours

現在のステータス

高度 436.4 km
速度 7.65 km/s
衛星直下点 9.64°N, 63.2°W
打ち上げ日 Mar 18, 2020
運用期間 5.7 years
タイプ internet

技術仕様

分類 Payload
質量 260.00 kg
乾燥質量 248.00 kg
総質量 260.00 kg
長さ 0.20 m
直径 2.80 m
スパン 9.00 m
形状 Box + pan
製造者 SPXS
バスタイプ Starlink
フェーズステータス In Orbit
所有者/国 SPXS/US

大規模コンステレーション

Loading constellations...